[keps] orb12152.amsat
Ray Hoad
ray.hoad at mypbmail.com
Thu May 31 19:23:17 PDT 2012
SB KEPS @ AMSAT $ORB12152.O
Orbital Elements 12152.OSCAR
HR AMSAT ORBITAL ELEMENTS FOR OSCAR SATELLITES
FROM WA5QGD FORT WORTH,TX May 31, 2012
Send SUBSCRIBE KEPS/UNSUBSCRIBE KEPS to majordomo at amsat.org only
BID: ORB12152.O
TO ALL RADIO AMATEURS BT
Satellite: AO-07
Catalog number: 07530
Epoch time: 12151.58811357
Element set: 392
Inclination: 101.4013 deg
RA of node: 149.4787 deg
Eccentricity: 0.0011811
Arg of perigee: 318.5818 deg
Mean anomaly: 041.4347 deg
Mean motion: 12.53589516 rev/day
Decay rate: -2.7e-07 rev/day^2
Epoch rev: 71784
Checksum: 296
Satellite: FO-29
Catalog number: 24278
Epoch time: 12152.47336529
Element set: 853
Inclination: 098.5853 deg
RA of node: 255.3151 deg
Eccentricity: 0.0351261
Arg of perigee: 072.6425 deg
Mean anomaly: 291.2811 deg
Mean motion: 13.52983724 rev/day
Decay rate: 1.2e-07 rev/day^2
Epoch rev: 77969
Checksum: 324
Satellite: SO-33
Catalog number: 25509
Epoch time: 12151.87192716
Element set: 0245
Inclination: 031.4312 deg
RA of node: 071.6736 deg
Eccentricity: 0.0351756
Arg of perigee: 051.7820 deg
Mean anomaly: 311.3975 deg
Mean motion: 14.28752908 rev/day
Decay rate: 4.43e-06 rev/day^2
Epoch rev: 71017
Checksum: 295
Satellite: RS-22
Catalog number: 27939
Epoch time: 12152.52595080
Element set: 404
Inclination: 097.8146 deg
RA of node: 354.1969 deg
Eccentricity: 0.0012797
Arg of perigee: 322.7206 deg
Mean anomaly: 037.3132 deg
Mean motion: 14.64023021 rev/day
Decay rate: 3.62e-06 rev/day^2
Epoch rev: 46344
Checksum: 291
Satellite: VO-52
Catalog number: 28650
Epoch time: 12151.84913769
Element set: 0115
Inclination: 097.5979 deg
RA of node: 183.6508 deg
Eccentricity: 0.0027812
Arg of perigee: 097.6351 deg
Mean anomaly: 262.8044 deg
Mean motion: 14.82936594 rev/day
Decay rate: 8.48e-06 rev/day^2
Epoch rev: 38240
Checksum: 344
Satellite: HO-68
Catalog number: 36122
Epoch time: 12152.26582745
Element set: 511
Inclination: 100.3617 deg
RA of node: 211.9522 deg
Eccentricity: 0.0007703
Arg of perigee: 145.5705 deg
Mean anomaly: 214.5908 deg
Mean motion: 13.16295907 rev/day
Decay rate: -4.4e-07 rev/day^2
Epoch rev: 11816
Checksum: 278
/EX
SB KEPS @ AMSAT $ORB12152.D
Orbital Elements 12152.MICROS
HR AMSAT ORBITAL ELEMENTS FOR THE MICROSATS
FROM WA5QGD FORT WORTH,TX May 31, 2012
Send SUBSCRIBE KEPS/UNSUBSCRIBE KEPS to majordomo at amsat.org only
BID: ORB12152.D
TO ALL RADIO AMATEURS BT
Satellite: UO-11
Catalog number: 14781
Epoch time: 12151.95353200
Element set: 0892
Inclination: 097.9557 deg
RA of node: 211.6239 deg
Eccentricity: 0.0010185
Arg of perigee: 089.2919 deg
Mean anomaly: 270.9462 deg
Mean motion: 14.80443199 rev/day
Decay rate: 5.28e-06 rev/day^2
Epoch rev: 51738
Checksum: 320
Satellite: AO-16
Catalog number: 20439
Epoch time: 12151.96932977
Element set: 0478
Inclination: 098.4291 deg
RA of node: 095.8266 deg
Eccentricity: 0.0010137
Arg of perigee: 207.0356 deg
Mean anomaly: 153.0302 deg
Mean motion: 14.32053373 rev/day
Decay rate: 1.05e-06 rev/day^2
Epoch rev: 16753
Checksum: 293
Satellite: LO-19
Catalog number: 20442
Epoch time: 12151.85522397
Element set: 0410
Inclination: 098.3947 deg
RA of node: 098.7824 deg
Eccentricity: 0.0011434
Arg of perigee: 198.4416 deg
Mean anomaly: 161.6356 deg
Mean motion: 14.32271812 rev/day
Decay rate: 9.8e-07 rev/day^2
Epoch rev: 16770
Checksum: 310
Satellite: AO-27
Catalog number: 22825
Epoch time: 12151.88683577
Element set: 0118
Inclination: 098.5742 deg
RA of node: 094.9715 deg
Eccentricity: 0.0008135
Arg of perigee: 337.3220 deg
Mean anomaly: 022.7593 deg
Mean motion: 14.29460509 rev/day
Decay rate: 9.2e-07 rev/day^2
Epoch rev: 97400
Checksum: 317
Satellite: IO-26
Catalog number: 22826
Epoch time: 12152.59085686
Element set: 865
Inclination: 098.5686 deg
RA of node: 096.0393 deg
Eccentricity: 0.0008581
Arg of perigee: 328.8168 deg
Mean anomaly: 031.2506 deg
Mean motion: 14.29734643 rev/day
Decay rate: 1.14e-06 rev/day^2
Epoch rev: 97423
Checksum: 336
Satellite: GO-32
Catalog number: 25397
Epoch time: 12151.61158424
Element set: 0789
Inclination: 098.3618 deg
RA of node: 131.1877 deg
Eccentricity: 0.0001295
Arg of perigee: 022.4947 deg
Mean anomaly: 337.6285 deg
Mean motion: 14.23276576 rev/day
Decay rate: 1.42e-06 rev/day^2
Epoch rev: 72152
Checksum: 315
Satellite: NO-44
Catalog number: 26931
Epoch time: 12152.53272562
Element set: 52
Inclination: 067.0511 deg
RA of node: 163.2651 deg
Eccentricity: 0.0007678
Arg of perigee: 265.8413 deg
Mean anomaly: 094.1816 deg
Mean motion: 14.29799433 rev/day
Decay rate: 2.89e-06 rev/day^2
Epoch rev: 55686
Checksum: 319
Satellite: SO-50
Catalog number: 27607
Epoch time: 12151.64642545
Element set: 0775
Inclination: 064.5586 deg
RA of node: 348.2584 deg
Eccentricity: 0.0083483
Arg of perigee: 251.9889 deg
Mean anomaly: 107.2074 deg
Mean motion: 14.72373183 rev/day
Decay rate: 1.60e-06 rev/day^2
Epoch rev: 50738
Checksum: 328
Satellite: CO-55
Catalog number: 27844
Epoch time: 12151.60049593
Element set: 385
Inclination: 098.7032 deg
RA of node: 160.2349 deg
Eccentricity: 0.0008875
Arg of perigee: 275.5884 deg
Mean anomaly: 084.4270 deg
Mean motion: 14.21021013 rev/day
Decay rate: 2.46e-06 rev/day^2
Epoch rev: 46239
Checksum: 304
Satellite: CO-57
Catalog number: 27848
Epoch time: 12152.23488368
Element set: 336
Inclination: 098.7113 deg
RA of node: 160.1858 deg
Eccentricity: 0.0008700
Arg of perigee: 279.9108 deg
Mean anomaly: 080.1075 deg
Mean motion: 14.20773071 rev/day
Decay rate: 2.07e-06 rev/day^2
Epoch rev: 46242
Checksum: 305
Satellite: AO-51
Catalog number: 28375
Epoch time: 12151.85941446
Element set: 278
Inclination: 098.1461 deg
RA of node: 117.9434 deg
Eccentricity: 0.0084518
Arg of perigee: 093.0126 deg
Mean anomaly: 268.0746 deg
Mean motion: 14.40944951 rev/day
Decay rate: 1.79e-06 rev/day^2
Epoch rev: 41627
Checksum: 325
Satellite: CP3
Catalog number: 31129
Epoch time: 12151.59194048
Element set: 0179
Inclination: 097.8819 deg
RA of node: 160.4038 deg
Eccentricity: 0.0101063
Arg of perigee: 177.2819 deg
Mean anomaly: 182.8935 deg
Mean motion: 14.53054704 rev/day
Decay rate: 4.58e-06 rev/day^2
Epoch rev: 27142
Checksum: 307
Satellite: CO-65
Catalog number: 32785
Epoch time: 12151.83643498
Element set: 0323
Inclination: 097.8015 deg
RA of node: 213.2976 deg
Eccentricity: 0.0015705
Arg of perigee: 116.8585 deg
Mean anomaly: 243.4210 deg
Mean motion: 14.82950267 rev/day
Decay rate: 6.96e-06 rev/day^2
Epoch rev: 22119
Checksum: 317
Satellite: PRISM
Catalog number: 33493
Epoch time: 12152.53723816
Element set: 743
Inclination: 098.1686 deg
RA of node: 292.7064 deg
Eccentricity: 0.0018506
Arg of perigee: 355.3409 deg
Mean anomaly: 004.7613 deg
Mean motion: 14.83819641 rev/day
Decay rate: 2.084e-05 rev/day^2
Epoch rev: 18128
Checksum: 307
Satellite: SOHLA-1
Catalog number: 33496
Epoch time: 12151.95112459
Element set: 0751
Inclination: 098.1033 deg
RA of node: 263.8025 deg
Eccentricity: 0.0007671
Arg of perigee: 094.8502 deg
Mean anomaly: 265.3579 deg
Mean motion: 14.69962568 rev/day
Decay rate: 2.58e-06 rev/day^2
Epoch rev: 17971
Checksum: 327
Satellite: SO-67
Catalog number: 35870
Epoch time: 12152.50878226
Element set: 4
Inclination: 097.2338 deg
RA of node: 188.8428 deg
Eccentricity: 0.0001276
Arg of perigee: 172.0930 deg
Mean anomaly: 324.3281 deg
Mean motion: 15.23691360 rev/day
Decay rate: 3.287e-05 rev/day^2
Epoch rev: 15007
Checksum: 299
Satellite: TISAT-1
Catalog number: 36799
Epoch time: 12152.46071523
Element set: 22
Inclination: 098.0617 deg
RA of node: 228.6720 deg
Eccentricity: 0.0013974
Arg of perigee: 222.0750 deg
Mean anomaly: 137.9387 deg
Mean motion: 14.81903315 rev/day
Decay rate: 1.524e-05 rev/day^2
Epoch rev: 10201
Checksum: 276
Satellite: STUDSAT
Catalog number: 36801
Epoch time: 12151.94827922
Element set: 0405
Inclination: 098.0684 deg
RA of node: 228.7911 deg
Eccentricity: 0.0011978
Arg of perigee: 211.3840 deg
Mean anomaly: 148.6649 deg
Mean motion: 14.84155037 rev/day
Decay rate: 4.727e-05 rev/day^2
Epoch rev: 10196
Checksum: 311
Satellite: FO-69
Catalog number: 37227
Epoch time: 12151.15929396
Element set: 0193
Inclination: 071.9694 deg
RA of node: 351.7422 deg
Eccentricity: 0.0016871
Arg of perigee: 348.8065 deg
Mean anomaly: 011.2719 deg
Mean motion: 14.77063952 rev/day
Decay rate: 4.63e-06 rev/day^2
Epoch rev: 03343
Checksum: 321
Satellite: FO-70
Catalog number: 37380
Epoch time: 12151.16181620
Element set: 0199
Inclination: 071.9727 deg
RA of node: 352.2718 deg
Eccentricity: 0.0017548
Arg of perigee: 346.0030 deg
Mean anomaly: 014.0635 deg
Mean motion: 14.76816061 rev/day
Decay rate: 4.32e-06 rev/day^2
Epoch rev: 03332
Checksum: 273
Satellite: ALMASAT-1
Catalog number: 38078
Epoch time: 12152.57568018
Element set: 257
Inclination: 069.4967 deg
RA of node: 354.8759 deg
Eccentricity: 0.0761879
Arg of perigee: 269.4632 deg
Mean anomaly: 081.9257 deg
Mean motion: 14.08753391 rev/day
Decay rate: 7.924e-05 rev/day^2
Epoch rev: 1521
Checksum: 357
Satellite: XATCOBEO
Catalog number: 38082
Epoch time: 12152.51347180
Element set: 278
Inclination: 069.4933 deg
RA of node: 353.5713 deg
Eccentricity: 0.0743300
Arg of perigee: 268.7054 deg
Mean anomaly: 082.9285 deg
Mean motion: 14.15081016 rev/day
Decay rate: 2.1288e-04 rev/day^2
Epoch rev: 1523
Checksum: 288
/EX
SB KEPS @ AMSAT $ORB12152.W
Orbital Elements 12152.WEATHER
HR AMSAT ORBITAL ELEMENTS FOR WEATHER SATELLITES
FROM WA5QGD FORT WORTH,TX May 31, 2012
Send SUBSCRIBE KEPS/UNSUBSCRIBE KEPS to majordomo at amsat.org only
BID: ORB12152.W
TO ALL RADIO AMATEURS BT
Satellite: NOAA-10
Catalog number: 16969
Epoch time: 12151.70790577
Element set: 0939
Inclination: 098.5819 deg
RA of node: 181.0721 deg
Eccentricity: 0.0011346
Arg of perigee: 287.3665 deg
Mean anomaly: 072.6253 deg
Mean motion: 14.27552720 rev/day
Decay rate: -6.7e-07 rev/day^2
Epoch rev: 33737
Checksum: 325
